Home   Weather   Hameln   Past weeks

Flag for Germany Past Weather in Hameln, Lower Saxony, Germany — Yesterday and Last 2 Weeks

Now
59 °F

Passing clouds.


Feels Like: 57 °F
Forecast: 63 / 75 °F
Wind: 12 mph from Southwest

Location: Bueckeburg

Current Time: Sep 28, 2016 at 3:56:14 AM

Latest Report: Sep 28, 2016 at 3:20 AM


Visibility: N/A

Pressure: 30.21 "Hg

Humidity: 72%

Dew Point: 50 °F

Location of HamelnLocation

Past Weather in Hameln — Graph

°F

Hameln Temperature Yesterday

Maximum temperature yesterday: 72 °F (at 3:20 PM)
Minimum temperature yesterday: 48 °F (at 7:20 AM)
Average temperature yesterday: 59 °F

High & Low Weather Summary for the Past Weeks

 TemperatureHumidityPressure
High91 °F (Sep 13, 3:20 PM)100% (Sep 17, 12:20 PM)30.30 "Hg (Sep 17, 12:20 PM)
Low46 °F (Sep 19, 5:20 AM)26% (Sep 13, 4:20 PM)29.86 "Hg (Sep 15, 4:20 PM)
Average64 °F68%30.08 "Hg
* Reported Sep 13 2:20 AM — Sep 28 2:20 AM, Hameln, Weather by CustomWeather, © 2016

Note: Actual official high and low records may vary slightly from our data, if they occured in-between our weather recording intervals... More about our weather records

Advertising

Hameln Weather History for the Previous 24 Hours

Scroll right to see more
 ConditionsComfort  
Time TempWeatherWind HumidityBarometerVisibility
2:20 AM
Wed, Sep 28
59 °FPassing clouds.7 mph68%30.24 "HgN/A
1:20 AM59 °FPassing clouds.9 mph72%30.24 "HgN/A
11:20 PM
Tue, Sep 27
59 °FPassing clouds.6 mph72%30.27 "HgN/A
10:20 PM57 °FPassing clouds.6 mph77%30.27 "HgN/A
9:20 PM59 °FPassing clouds.5 mph68%30.27 "HgN/A
8:20 PM59 °FPassing clouds.5 mph72%30.27 "HgN/A
7:20 PM64 °FPassing clouds.6 mph56%30.27 "HgN/A
6:20 PM70 °FScattered clouds.7 mph46%30.27 "HgN/A
5:20 PM72 °FScattered clouds.5 mph44%30.27 "HgN/A
4:20 PM72 °FPassing clouds.6 mph44%30.27 "HgN/A
3:20 PM72 °FPassing clouds.6 mph44%30.27 "HgN/A
2:20 PM70 °FPassing clouds.5 mph46%30.30 "HgN/A
1:20 PM68 °FScattered clouds.6 mph53%30.30 "HgN/A
12:20 PM68 °FPassing clouds.3 mph60%30.30 "HgN/A
11:20 AM64 °FPassing clouds.3 mph68%30.30 "HgN/A
10:20 AM63 °FPassing clouds.1 mph77%30.30 "HgN/A
9:20 AM57 °FPassing clouds.1 mph88%30.30 "HgN/A
8:51 AM54 °FFog.No wind100%30.27 "Hg3 mi
8:20 AM52 °FLight fog.1 mph94%30.27 "Hg2 mi
7:47 AM50 °FFog.2 mph94%30.27 "Hg0 mi
7:20 AM48 °FFog.2 mph100%30.27 "Hg0 mi
6:20 AM50 °FLight fog.2 mph100%30.27 "Hg5 mi
5:20 AM52 °FFog.1 mph94%30.24 "HgN/A
4:20 AM52 °FPassing clouds.2 mph100%30.24 "HgN/A
3:20 AM54 °FPassing clouds.2 mph94%30.24 "HgN/A
Weather by CustomWeather, © 2016

See weather overviewHow to use our weather pages